Gainesville, FL

9:14 PM EST on December 09, 2019 (GMT -0500)
Gainesville Regional

Weather History for KGNV - October, 2019

Change the Weather History Date:

Sunday, October 20, 2019

  Actual Average Record
Temperature  
Mean Temperature 74 °F 70 °F  
Max Temperature 84 °F 80 °F 91 °F (2006)
Min Temperature 64 °F 59 °F 38 °F (1989)
Degree Days  
Heating Degree Days 0 1  
Month to date heating degree days 0 8  
Since 1 July heating degree days 0 8  
Cooling Degree Days 9 6  
Month to date cooling degree days 217 160  
Year to date cooling degree days 3233 2500  
Growing Degree Days 25 (Base 50)    
Moisture  
Dew Point 68 °F    
Average Humidity 72    
Maximum Humidity 93    
Minimum Humidity 51    
Precipitation  
Precipitation T in 0.08 in 4.00 in (1944)
Month to date precipitation 2.63 2.13  
Year to date precipitation 40.87 42.12  
Snow  
Snow 0.00 in 0.00 in 0.00 in ()
Month to date snowfall 0.0 0.0  
Since 1 July snowfall 0.0 0.0  
Since 1 September snowfall 0.0 0.0  
Snow Depth 0.00 in    
Sea Level Pressure  
Sea Level Pressure 29.88 in    
Wind  
Wind Speed 7 mph (WSW)    
Max Wind Speed 16 mph    
Max Gust Speed 21 mph    
Visibility 9 miles    
Events Rain    
T = Trace of Precipitation, MM = Missing Value Source: NWS Daily Summary

Daily Weather History Graph

Daily Weather History Graph

Search for Another Location

Airport or City:

Astronomy

Oct. 20, 2019 Rise Set
Actual Time 7:33 AM EDT 6:53 PM EDT
Civil Twilight 7:09 AM EDT 7:17 PM EDT
Nautical Twilight 6:41 AM EDT 7:45 PM EDT
Astronomical Twilight 6:14 AM EDT 8:13 PM EDT
Moon No Moon Rise 1:43 PM EDT (10/20)
Length of Visible Light 12h 07m
Length of Day
11h 19m
Waning Gibbous, 59% of the Moon is Illuminated
Oct 20
Waning Gibbous
Oct 21
Last Quarter
Oct 27
New
Nov 4
First Quarter
Nov 12
Full

Hourly Weather History & Observations

Time (EDT) Temp. Heat Index Dew Point Humidity Pressure Visibility Wind Dir Wind Speed Gust Speed Precip Events Conditions
12:28 AM 75.0 °F - 73.0 °F 94% 29.80 in - SSW 8.1 mph - N/A   Mostly Cloudy
12:45 AM 75.0 °F - 73.0 °F 94% 29.79 in - SSW 6.9 mph - N/A   Overcast
12:53 AM 75.0 °F - 73.0 °F 94% 29.79 in - SSW 5.8 mph - 0.00 in Rain Light Rain
1:06 AM 75.0 °F - 73.0 °F 94% 29.79 in - WSW 9.2 mph - 0.00 in Rain Light Rain
1:45 AM 75.0 °F - 72.0 °F 90% 29.79 in - SW 9.2 mph - 0.00 in   Overcast
1:53 AM 75.0 °F - 72.0 °F 90% 29.78 in - SW 9.2 mph - 0.00 in   Overcast
2:07 AM 75.0 °F - 72.0 °F 90% 29.79 in - SW 8.1 mph - N/A   Overcast
2:53 AM 73.9 °F - 71.1 °F 91% 29.79 in - WSW 10.4 mph - N/A   Mostly Cloudy
3:53 AM 73.0 °F - 71.1 °F 93% 29.80 in - WSW 10.4 mph - N/A   Mostly Cloudy
4:10 AM 73.0 °F - 70.0 °F 90% 29.80 in - WSW 9.2 mph - N/A   Mostly Cloudy
4:53 AM 73.0 °F - 70.0 °F 90% 29.81 in - West 12.7 mph - N/A   Overcast
5:21 AM 73.0 °F - 69.1 °F 87% 29.83 in - West 12.7 mph - N/A   Overcast
5:40 AM 73.0 °F - 69.1 °F 87% 29.83 in - West 11.5 mph - N/A   Overcast
5:53 AM 73.0 °F - 69.1 °F 87% 29.83 in - West 13.8 mph 20.7 mph N/A   Overcast
6:12 AM 73.0 °F - 69.1 °F 87% 29.85 in - West 12.7 mph - N/A   Overcast
6:38 AM 72.0 °F - 68.0 °F 87% 29.87 in 2.0 mi West 10.4 mph - N/A   Overcast
6:53 AM 72.0 °F - 68.0 °F 87% 29.87 in 2.0 mi West 12.7 mph - N/A   Overcast
7:00 AM 71.1 °F - 66.9 °F 87% 29.88 in 7.0 mi West 11.5 mph - N/A   Overcast
7:30 AM 70.0 °F - 66.0 °F 87% 29.88 in 7.0 mi West 11.5 mph - N/A   Scattered Clouds
7:53 AM 70.0 °F - 66.0 °F 87% 29.89 in 10.0 mi West 8.1 mph - N/A   Partly Cloudy
8:53 AM 71.1 °F - 64.9 °F 81% 29.92 in 10.0 mi West 9.2 mph - N/A   Clear
10:53 AM 75.9 °F - 64.9 °F 69% 29.95 in 10.0 mi West 10.4 mph - N/A   Clear
11:53 AM 78.1 °F - 64.9 °F 64% 29.96 in 10.0 mi Variable 6.9 mph - N/A   Clear
12:53 PM 79.0 °F - 64.9 °F 62% 29.96 in 10.0 mi West 11.5 mph - N/A   Clear
1:53 PM 81.0 °F 83.0 °F 66.0 °F 60% 29.95 in 10.0 mi WSW 11.5 mph - N/A   Clear
2:53 PM 82.0 °F 84.1 °F 66.0 °F 58% 29.94 in 10.0 mi WSW 10.4 mph - N/A   Clear
3:53 PM 84.0 °F 85.8 °F 64.9 °F 53% 29.93 in 10.0 mi West 9.2 mph - N/A   Clear
4:53 PM 82.9 °F 85.0 °F 66.0 °F 56% 29.93 in 10.0 mi NW 5.8 mph - N/A   Clear
5:53 PM 82.0 °F 84.1 °F 66.0 °F 58% 29.94 in 10.0 mi NW 4.6 mph - N/A   Clear
6:53 PM 75.9 °F - 66.9 °F 74% 29.95 in 10.0 mi Calm Calm - N/A   Clear
7:53 PM 71.1 °F - 66.9 °F 87% 29.96 in 10.0 mi Calm Calm - N/A   Clear
9:53 PM 66.9 °F - 64.9 °F 93% 29.99 in 10.0 mi Calm Calm - N/A   Clear
10:53 PM 68.0 °F - 64.9 °F 90% 30.00 in 10.0 mi Calm Calm - N/A   Clear
11:53 PM 66.0 °F - 64.0 °F 93% 30.00 in 10.0 mi Calm Calm - N/A   Clear